Location: ??????
(55.7522°N, 37.6156°E)
Time: 18:11:00
(UTC+00:00)

Meteor 1-24 Rocket - Pass Details

Date: 14 June 2025
Orbit: 788 x 926 km, 81.2° (Epoch: 13 July)

Event Time Altitude Azimuth Distance (km) Brightness Sun altitude
Exits shadow 21:31:34 14° 182° (S) 2,323 5.3 -10.9°
Maximum altitude 21:36:45 73° 100° (E) 956 4.0 -10.9°
Drops below altitude 10° 21:42:37 10° 17° (NNE) 2,575 7.6 -10.9°
Sets 21:45:03 0° 16° (NNE) 3,500 8.8 -10.9°
